FW6455 Weather Reports


Display with metric or nautical units.
time (UTC)temp
F
wind
direction
speed
MPH
gust
MPH
rain 1hr
in
rain 24hr
in
rain mn
in
humidity
%
barometer
mb
20260510150541 74 215 1.0 4.0 0.00 0.00 0.00 73 1015.5
20260510150120 74 175 1.0 4.0 0.00 0.00 0.00 73 1015.5
20260510145538 74 171 0.0 3.0 0.00 0.00 0.00 73 1015.5
20260510145037 73 134 0.0 3.0 0.00 0.00 0.00 73 1015.6
20260510144607 73 209 1.0 3.0 0.00 0.00 0.00 73 1015.6
20260510144040 73 201 1.0 6.0 0.00 0.00 0.00 74 1015.7
20260510143538 72 109 1.0 6.0 0.00 0.00 0.00 75 1015.8
20260510143050 72 152 1.0 3.0 0.00 0.00 0.00 74 1016.1
20260510142538 72 116 0.0 2.0 0.00 0.00 0.00 74 1016.3
20260510142039 72 196 0.0 3.0 0.00 0.00 0.00 75 1016.5
20260510141549 71 155 0.0 5.0 0.00 0.00 0.00 76 1016.6
20260510141039 71 61 1.0 5.0 0.00 0.00 0.00 76 1016.7
20260510140540 71 91 1.0 3.0 0.00 0.00 0.00 76 1016.7
20260510140048 70 68 0.0 3.0 0.00 0.00 0.00 76 1016.8
20260510135538 70 101 1.0 5.0 0.00 0.00 0.00 77 1016.8
20260510135037 69 107 0.0 5.0 0.00 0.00 0.00 77 1016.8
20260510134602 69 67 1.0 3.0 0.00 0.00 0.00 77 1016.6
20260510134038 69 123 0.0 2.0 0.00 0.00 0.00 78 1016.4
20260510133537 68 0 0.0 2.0 0.00 0.00 0.00 78 1016.4
20260510133049 68 127 0.0 2.0 0.00 0.00 0.00 78 1016.4
20260510132539 68 0 0.0 1.0 0.00 0.00 0.00 78 1016.2
20260510132039 68 0 0.0 2.0 0.00 0.00 0.00 78 1016.2
20260510131549 68 0 0.0 4.0 0.00 0.00 0.00 78 1016.2
20260510131038 68 107 0.0 4.0 0.00 0.00 0.00 77 1016.1
20260510130538 68 113 0.0 3.0 0.00 0.00 0.00 78 1016.2
20260510130048 68 103 1.0 5.0 0.00 0.00 0.00 78 1016.1
20260510125538 68 105 1.0 7.0 0.00 0.00 0.00 78 1016.1
20260510125038 68 18 2.0 7.0 0.00 0.00 0.00 78 1016.1
20260510124550 68 108 0.0 7.0 0.00 0.00 0.00 79 1016.1
20260510124038 68 68 1.0 7.0 0.00 0.00 0.00 79 1016.0
20260510123538 68 122 1.0 7.0 0.00 0.00 0.00 79 1015.9
20260510123049 68 118 1.0 5.0 0.00 0.00 0.00 79 1015.8
20260510122537 68 118 1.0 5.0 0.00 0.00 0.00 79 1015.7
20260510122035 68 74 0.0 2.0 0.00 0.00 0.00 79 1015.8
20260510121548 68 96 1.0 2.0 0.00 0.00 0.00 79 1015.8
20260510121039 68 93 0.0 2.0 0.00 0.00 0.00 79 1015.6
20260510120538 68 116 1.0 5.0 0.00 0.00 0.00 79 1015.5
20260510120054 68 130 0.0 5.0 0.00 0.00 0.00 79 1015.4
20260510115538 68 119 1.0 4.0 0.00 0.00 0.00 79 1015.5
20260510115038 68 106 0.0 6.0 0.00 0.00 0.00 79 1015.4
20260510114607 68 89 2.0 6.0 0.00 0.00 0.00 78 1015.3
20260510114038 68 98 2.0 5.0 0.00 0.00 0.00 78 1015.3
20260510113537 68 77 1.0 5.0 0.00 0.00 0.00 78 1015.3
20260510113059 68 88 2.0 9.0 0.00 0.00 0.00 78 1015.1
20260510112537 68 65 1.0 9.0 0.00 0.00 0.00 78 1015.1
20260510112038 68 84 2.0 6.0 0.00 0.00 0.00 78 1015.0
20260510111548 69 86 2.0 7.0 0.00 0.00 0.00 78 1014.9
20260510111036 69 101 2.0 7.0 0.00 0.00 0.00 77 1014.8
20260510110539 69 82 2.0 8.0 0.00 0.00 0.00 77 1015.0
20260510110052 69 60 2.0 8.0 0.00 0.00 0.00 77 1014.9
20260510105541 69 108 3.0 9.0 0.00 0.00 0.00 76 1015.1
20260510105039 69 84 3.0 12.0 0.00 0.00 0.00 76 1015.2
20260510104557 69 121 5.0 12.0 0.00 0.00 0.00 76 1015.3
20260510104037 70 86 3.0 12.0 0.00 0.00 0.00 77 1015.2
20260510103536 70 58 6.0 16.0 0.00 0.00 0.00 76 1015.4
20260510103056 70 84 5.0 16.0 0.00 0.00 0.00 75 1015.4
20260510102536 71 68 3.0 15.0 0.00 0.00 0.00 76 1015.4
20260510102037 71 85 5.0 15.0 0.00 0.00 0.00 76 1015.3
20260510101548 71 60 9.0 15.0 0.00 0.00 0.00 77 1015.4
20260510101039 72 57 6.0 13.0 0.00 0.00 0.00 79 1015.3
20260510100538 73 314 3.0 7.0 0.00 0.00 0.00 90 1015.2
20260510100059 73 71 3.0 8.0 0.00 0.00 0.00 91 1015.2
20260510095537 73 51 3.0 8.0 0.00 0.00 0.00 91 1015.1
20260510095037 72 63 3.0 8.0 0.00 0.00 0.00 91 1015.0
20260510094557 72 69 2.0 7.0 0.00 0.00 0.00 91 1014.7
20260510094037 72 84 0.0 4.0 0.00 0.00 0.00 91 1014.5
20260510093540 71 64 1.0 4.0 0.00 0.00 0.00 91 1014.4
20260510093050 71 99 1.0 4.0 0.00 0.00 0.00 91 1014.3
20260510092539 71 41 0.0 3.0 0.00 0.00 0.00 91 1014.1
20260510092037 71 0 0.0 4.0 0.00 0.00 0.00 91 1013.7
20260510091550 71 34 2.0 4.0 0.00 0.00 0.00 91 1013.5
20260510091036 71 45 1.0 2.0 0.00 0.00 0.00 91 1013.1
20260510090540 71 89 0.0 2.0 0.00 0.00 0.00 90 1013.1
20260510090059 71 42 1.0 3.0 0.00 0.00 0.00 91 1013.0
20260510085537 71 58 1.0 3.0 0.00 0.00 0.00 91 1013.0
20260510085037 71 53 1.0 3.0 0.00 0.00 0.00 90 1012.8
20260510084549 71 77 1.0 3.0 0.00 0.00 0.00 90 1012.9
20260510084037 71 68 1.0 3.0 0.00 0.00 0.00 90 1012.6
20260510083537 71 81 1.0 3.0 0.00 0.00 0.00 90 1012.5
20260510083053 71 78 0.0 3.0 0.00 0.00 0.00 90 1012.3
20260510082537 71 0 1.0 3.0 0.00 0.00 0.00 91 1012.2
20260510082038 70 76 0.0 1.0 0.00 0.00 0.00 91 1012.2
20260510081554 70 91 0.0 1.0 0.00 0.00 0.00 91 1012.2
20260510081038 70 0 0.0 0.0 0.00 0.00 0.00 91 1012.0
20260510080537 70 0 0.0 0.0 0.00 0.00 0.00 90 1011.9
20260510080054 70 0 0.0 0.0 0.00 0.00 0.00 89 1011.7
20260510075538 70 0 0.0 0.0 0.00 0.00 0.00 89 1011.7
20260510075036 70 0 0.0 0.0 0.00 0.00 0.00 89 1011.5
20260510074559 70 0 0.0 0.0 0.00 0.00 0.00 88 1011.5
20260510074039 71 0 0.0 0.0 0.00 0.00 0.00 88 1011.6
20260510073537 71 0 0.0 0.0 0.00 0.00 0.00 88 1011.6
20260510073051 71 0 0.0 0.0 0.00 0.00 0.00 88 1011.9
20260510072536 71 0 0.0 0.0 0.00 0.00 0.00 87 1012.0
20260510072042 71 0 0.0 0.0 0.00 0.00 0.00 87 1012.1
20260510071602 72 0 0.0 0.0 0.00 0.00 0.00 87 1012.0
20260510071038 72 0 0.0 0.0 0.00 0.00 0.00 87 1012.1
20260510070538 72 0 0.0 0.0 0.00 0.00 0.00 86 1012.0
20260510070107 72 0 0.0 0.0 0.00 0.00 0.00 86 1012.1
20260510065540 72 0 0.0 1.0 0.00 0.00 0.00 86 1012.2
20260510065039 72 0 0.0 1.0 0.00 0.00 0.00 87 1012.4
20260510064558 72 0 0.0 1.0 0.00 0.00 0.00 87 1012.3
20260510064040 72 0 0.0 0.0 0.00 0.00 0.00 86 1011.8
20260510063538 72 0 0.0 0.0 0.00 0.00 0.00 86 1011.4
20260510063059 72 0 0.0 0.0 0.00 0.00 0.00 86 1011.1
20260510062539 72 0 0.0 0.0 0.00 0.00 0.00 86 1011.1
20260510062038 72 152 0.0 0.0 0.00 0.00 0.00 86 1010.9
20260510061546 72 0 0.0 1.0 0.00 0.00 0.00 85 1010.9
20260510061038 72 0 0.0 1.0 0.00 0.00 0.00 85 1010.9
20260510060540 71 0 0.0 1.0 0.00 0.00 0.00 85 1011.0
20260510060051 71 0 0.0 1.0 0.00 0.00 0.00 85 1011.0
20260510055538 71 0 0.0 0.0 0.00 0.00 0.00 84 1011.0
20260510055038 71 0 0.0 1.0 0.00 0.00 0.00 84 1010.9
20260510054554 71 0 0.0 1.0 0.00 0.00 0.00 84 1011.0
20260510054039 71 0 0.0 0.0 0.00 0.00 0.00 83 1010.8
20260510053539 71 0 0.0 1.0 0.00 0.00 0.00 83 1010.8
20260510053052 72 0 0.0 1.0 0.00 0.00 0.00 82 1010.7
20260510052544 72 0 0.0 1.0 0.00 0.00 0.00 82 1010.7
20260510052041 72 0 0.0 1.0 0.00 0.00 0.00 82 1010.7
20260510051548 72 0 0.0 1.0 0.00 0.00 0.00 82 1010.7
20260510051040 72 0 0.0 1.0 0.00 0.00 0.00 82 1010.6
20260510050542 71 0 0.0 1.0 0.00 0.00 0.00 82 1010.5
20260510050054 71 0 0.0 0.0 0.00 0.00 0.00 82 1010.6
20260510045540 72 0 0.0 0.0 0.00 0.00 0.00 81 1010.4
20260510045040 72 0 0.0 1.0 0.00 0.00 0.00 81 1010.5
20260510044603 72 0 0.0 1.0 0.00 0.00 0.00 81 1010.5
20260510044040 72 0 0.0 1.0 0.00 0.00 0.00 81 1010.6
20260510043540 72 0 0.0 0.0 0.00 0.00 0.00 80 1010.6
20260510043054 72 0 0.0 0.0 0.00 0.00 0.00 80 1010.6
20260510042541 72 0 0.0 1.0 0.00 0.00 0.00 80 1010.6
20260510042043 72 0 0.0 1.0 0.00 0.00 0.00 80 1010.7
20260510041559 72 0 0.0 1.0 0.00 0.00 0.00 80 1010.6
20260510041040 73 0 0.0 0.0 0.00 0.00 0.00 79 1010.6
20260510040542 73 0 0.0 0.0 0.00 0.00 0.00 79 1010.7
20260510040053 73 0 0.0 0.0 0.00 0.00 0.00 78 1010.7
20260510035540 74 0 0.0 0.0 0.00 0.00 0.00 78 1010.7
20260510035043 74 0 0.0 0.0 0.00 0.00 0.00 77 1010.8
20260510034550 74 0 0.0 0.0 0.00 0.00 0.00 76 1010.8
20260510034038 75 0 0.0 0.0 0.00 0.00 0.00 76 1010.8
20260510033539 75 0 0.0 0.0 0.00 0.00 0.00 75 1010.8
20260510033113 76 0 0.0 0.0 0.00 0.00 0.00 74 1010.9
20260510032541 76 0 0.0 0.0 0.00 0.00 0.00 73 1010.9
20260510032039 76 0 0.0 1.0 0.00 0.00 0.00 73 1010.9
20260510031614 77 0 0.0 1.0 0.00 0.00 0.00 72 1010.8
20260510031039 77 0 0.0 1.0 0.00 0.00 0.00 71 1010.9
20260510030537 77 0 0.0 1.0 0.00 0.00 0.00 71 1010.9
20260510030052 77 0 0.0 1.0 0.00 0.00 0.00 70 1010.8
20260510025541 78 82 0.0 2.0 0.00 0.00 0.00 70 1010.8
20260510025040 78 0 0.0 2.0 0.00 0.00 0.00 70 1010.7
20260510024554 78 84 0.0 2.0 0.00 0.00 0.00 69 1010.6
20260510024037 78 88 0.0 3.0 0.00 0.00 0.00 69 1010.5
20260510023538 78 68 0.0 3.0 0.00 0.00 0.00 69 1010.4
20260510023051 79 89 1.0 3.0 0.00 0.00 0.00 69 1010.4
20260510022540 79 115 0.0 3.0 0.00 0.00 0.00 69 1010.3
20260510022037 78 94 1.0 3.0 0.00 0.00 0.00 69 1010.3
20260510021547 78 79 0.0 1.0 0.00 0.00 0.00 69 1010.3
20260510021043 78 0 0.0 0.0 0.00 0.00 0.00 69 1010.1
20260510020540 78 0 0.0 0.0 0.00 0.00 0.00 69 1010.0
20260510020048 78 0 0.0 0.0 0.00 0.00 0.00 68 1010.0
20260510015536 79 0 0.0 0.0 0.00 0.00 0.00 66 1009.9
20260510015043 79 0 0.0 0.0 0.00 0.00 0.00 66 1010.0
20260510014553 80 0 0.0 0.0 0.00 0.00 0.00 65 1009.9
20260510014037 80 0 0.0 0.0 0.00 0.00 0.00 64 1010.0
20260510013537 80 0 0.0 0.0 0.00 0.00 0.00 63 1009.9
20260510013048 81 0 0.0 0.0 0.00 0.00 0.00 62 1009.8
20260510012538 81 0 0.0 0.0 0.00 0.00 0.00 62 1009.6
20260510012040 81 0 0.0 0.0 0.00 0.00 0.00 61 1009.5
20260510011559 82 0 0.0 0.0 0.00 0.00 0.00 60 1009.5
20260510011037 82 0 0.0 0.0 0.00 0.00 0.00 59 1009.5
20260510010537 82 0 0.0 0.0 0.00 0.00 0.00 58 1009.5
20260510010100 83 0 0.0 0.0 0.00 0.00 0.00 57 1009.4
20260510005541 83 0 0.0 0.0 0.00 0.00 0.00 56 1009.3
20260510005038 83 0 0.0 1.0 0.00 0.00 0.00 56 1009.5
20260510004555 84 0 0.0 2.0 0.00 0.00 0.00 55 1009.4
20260510004039 84 0 0.0 2.0 0.00 0.00 0.00 56 1009.3
20260510003540 84 0 0.0 2.0 0.00 0.00 0.00 55 1009.3
20260510003101 84 90 0.0 3.0 0.00 0.00 0.00 55 1009.3
20260510002540 85 0 0.0 3.0 0.00 0.00 0.00 55 1009.3
20260510002039 85 0 1.0 3.0 0.00 0.00 0.00 55 1009.3
20260510001551 85 105 0.0 3.0 0.00 0.00 0.00 55 1009.4
20260510001039 85 0 1.0 3.0 0.00 0.00 0.00 54 1009.3
20260510000538 85 74 1.0 3.0 0.00 0.00 0.00 55 1009.2
20260510000056 85 90 0.0 3.0 0.00 0.00 0.00 55 1009.2
20260509235540 85 0 1.0 4.0 0.00 0.00 0.00 55 1009.2
20260509235038 85 86 1.0 4.0 0.00 0.00 0.00 55 1009.1
20260509234606 85 75 2.0 4.0 0.00 0.00 0.00 55 1009.2
20260509234038 85 89 1.0 5.0 0.00 0.00 0.00 56 1009.1
20260509233542 85 68 1.0 5.0 0.00 0.00 0.00 56 1009.2
20260509233050 86 85 2.0 5.0 0.00 0.00 0.00 57 1009.2
20260509232540 86 70 0.0 5.0 0.00 0.00 0.00 57 1009.2
20260509232040 86 96 2.0 6.0 0.00 0.00 0.00 57 1009.1
20260509231548 86 88 2.0 6.0 0.00 0.00 0.00 57 1009.1
20260509231039 86 101 1.0 4.0 0.00 0.00 0.00 58 1009.2
20260509230540 86 136 1.0 5.0 0.00 0.00 0.00 58 1009.1
20260509230048 86 69 2.0 5.0 0.00 0.00 0.00 57 1009.1
20260509225544 86 68 2.0 5.0 0.00 0.00 0.00 58 1009.2
20260509225039 86 98 2.0 5.0 0.00 0.00 0.00 57 1009.2
20260509224549 86 0 0.0 4.0 0.00 0.00 0.00 59 1009.0
20260509224039 86 63 1.0 5.0 0.00 0.00 0.00 59 1009.1
20260509223542 86 81 1.0 5.0 0.00 0.00 0.00 59 1009.1
20260509223057 87 77 2.0 5.0 0.00 0.00 0.00 59 1009.1
20260509222540 87 60 1.0 3.0 0.00 0.00 0.00 58 1009.1
20260509222040 87 96 0.0 3.0 0.00 0.00 0.00 59 1009.0
20260509221551 87 84 1.0 6.0 0.00 0.00 0.00 59 1008.9
20260509221039 87 86 2.0 6.0 0.00 0.00 0.00 59 1009.0
20260509220540 87 102 1.0 6.0 0.00 0.00 0.00 58 1008.9
20260509215539 87 98 0.0 5.0 0.00 0.00 0.00 58 1009.0
20260509215043 87 103 1.0 5.0 0.00 0.00 0.00 59 1009.1
20260509214551 87 120 1.0 5.0 0.00 0.00 0.00 58 1009.1
20260509214040 88 75 2.0 5.0 0.00 0.00 0.00 56 1009.1
20260509213541 88 45 1.0 4.0 0.00 0.00 0.00 55 1009.2
20260509213055 88 65 1.0 4.0 0.00 0.00 0.00 54 1009.2
20260509212538 88 314 0.0 2.0 0.00 0.00 0.00 53 1009.2
20260509212039 88 33 0.0 4.0 0.00 0.00 0.00 53 1009.4
20260509211547 88 45 1.0 4.0 0.00 0.00 0.00 52 1009.5
20260509211040 88 51 1.0 4.0 0.00 0.00 0.00 53 1009.7
20260509210540 88 70 0.0 4.0 0.00 0.00 0.00 54 1009.7
20260509210048 88 0 2.0 4.0 0.00 0.00 0.00 53 1009.6
20260509205539 89 307 0.0 2.0 0.00 0.01 0.00 55 1009.8
20260509205039 88 0 0.0 2.0 0.00 0.01 0.00 54 1009.9
20260509204559 88 303 0.0 5.0 0.00 0.01 0.00 54 1010.0
20260509204039 88 58 2.0 5.0 0.00 0.01 0.00 54 1010.0
20260509203538 89 23 1.0 4.0 0.00 0.01 0.00 55 1010.1
20260509203058 89 49 1.0 3.0 0.00 0.01 0.00 53 1010.1
20260509202539 89 0 0.0 2.0 0.00 0.01 0.00 51 1010.2
20260509202039 89 0 1.0 2.0 0.00 0.01 0.00 48 1010.3
20260509201548 89 264 0.0 3.0 0.00 0.01 0.00 49 1010.3
20260509201040 89 25 0.0 3.0 0.00 0.01 0.00 49 1010.3
20260509200540 88 76 1.0 3.0 0.00 0.01 0.00 51 1010.4
20260509200049 88 0 0.0 2.0 0.00 0.01 0.00 52 1010.4
20260509195538 88 68 0.0 2.0 0.00 0.01 0.00 52 1010.5
20260509195042 88 0 0.0 3.0 0.00 0.01 0.00 52 1010.5
20260509194557 88 312 0.0 6.0 0.00 0.01 0.00 54 1010.6
20260509194040 88 29 1.0 6.0 0.00 0.01 0.00 53 1010.5
20260509193540 88 307 2.0 6.0 0.00 0.01 0.00 55 1010.6
20260509193049 88 0 0.0 2.0 0.00 0.01 0.00 53 1010.7
20260509192539 88 274 0.0 4.0 0.00 0.01 0.00 55 1010.8
20260509192039 87 92 1.0 5.0 0.00 0.01 0.00 56 1010.8
20260509191553 88 81 2.0 5.0 0.00 0.01 0.00 54 1010.8
20260509191042 88 59 0.0 2.0 0.00 0.01 0.00 55 1010.7
20260509190538 88 264 0.0 3.0 0.00 0.01 0.00 55 1010.7
20260509190057 88 0 0.0 3.0 0.00 0.01 0.00 56 1010.9
20260509185540 88 0 1.0 6.0 0.00 0.01 0.00 57 1010.8
20260509185037 88 309 1.0 6.0 0.00 0.01 0.00 55 1010.9
20260509184554 88 65 1.0 5.0 0.00 0.01 0.00 55 1010.9
20260509184039 88 0 0.0 4.0 0.00 0.01 0.00 57 1011.0
20260509183539 88 65 1.0 6.0 0.00 0.01 0.00 55 1011.0
20260509183053 88 55 1.0 6.0 0.00 0.01 0.00 56 1011.0
20260509182539 88 72 2.0 5.0 0.00 0.01 0.00 55 1011.1
20260509182039 89 276 0.0 2.0 0.00 0.01 0.00 56 1011.2
20260509181602 88 96 0.0 3.0 0.00 0.01 0.00 57 1011.2
20260509181037 88 0 0.0 3.0 0.00 0.01 0.00 57 1011.2
20260509180541 89 46 0.0 2.0 0.00 0.01 0.00 55 1011.2
20260509180059 88 70 0.0 2.0 0.00 0.01 0.00 55 1011.2
20260509175539 88 326 1.0 2.0 0.00 0.01 0.00 54 1011.2
20260509175040 89 338 0.0 2.0 0.00 0.01 0.00 53 1011.4
20260509174601 88 0 0.0 2.0 0.00 0.01 0.00 53 1011.3
20260509174039 88 296 0.0 2.0 0.00 0.01 0.00 53 1011.4
20260509173538 88 274 0.0 2.0 0.00 0.01 0.00 53 1011.5
20260509173058 87 342 0.0 3.0 0.00 0.01 0.00 54 1011.6
20260509172539 87 305 1.0 3.0 0.00 0.01 0.00 52 1011.6
20260509172036 87 308 1.0 3.0 0.00 0.01 0.00 53 1011.6
20260509171553 87 246 0.0 3.0 0.00 0.01 0.00 54 1011.6
20260509171038 86 317 1.0 3.0 0.00 0.01 0.00 55 1011.7
20260509170539 86 0 0.0 3.0 0.00 0.01 0.00 56 1011.7
20260509170050 86 307 0.0 3.0 0.00 0.01 0.00 55 1011.8
20260509165539 86 310 0.0 2.0 0.00 0.01 0.00 56 1011.8
20260509165039 85 276 0.0 3.0 0.00 0.01 0.00 59 1011.9
20260509164548 85 0 0.0 3.0 0.00 0.01 0.00 59 1011.8
20260509164038 85 316 1.0 3.0 0.00 0.01 0.00 58 1011.9
20260509163541 85 309 0.0 3.0 0.00 0.01 0.00 58 1011.9
20260509163104 85 300 1.0 3.0 0.00 0.01 0.00 60 1011.9
20260509162539 85 302 1.0 2.0 0.00 0.01 0.00 59 1011.9
20260509162039 85 277 1.0 2.0 0.00 0.01 0.00 60 1011.9
20260509161550 84 294 0.0 1.0 0.00 0.01 0.00 61 1011.9
20260509161041 84 287 0.0 2.0 0.00 0.01 0.00 62 1011.9
20260509160539 83 259 0.0 2.0 0.00 0.01 0.00 64 1012.0
20260509160059 83 307 0.0 2.0 0.00 0.01 0.00 64 1012.0
20260509155539 82 297 0.0 2.0 0.00 0.01 0.00 64 1012.0
20260509155038 82 314 0.0 1.0 0.00 0.01 0.00 65 1012.0
20260509154600 81 0 0.0 1.0 0.00 0.01 0.00 65 1012.0
20260509154039 81 292 0.0 2.0 0.00 0.01 0.00 65 1012.0
20260509153539 80 302 0.0 2.0 0.00 0.01 0.00 66 1012.0
20260509153050 80 313 1.0 2.0 0.00 0.01 0.00 65 1011.9
20260509152539 80 359 0.0 2.0 0.00 0.01 0.00 68 1011.8
20260509152039 79 274 0.0 2.0 0.00 0.01 0.00 70 1011.7
20260509151553 79 250 1.0 2.0 0.00 0.01 0.00 71 1011.7
20260509151039 79 308 0.0 2.0 0.00 0.01 0.00 72 1011.7